Notices

What's New in latest Release from April 7th, 2021:

- Updated Glossary, including Speed of Maximum Gust, and Total Hourly Precipitation

- Updated national and regional climate services offices contacts and prices information

- Addition of station inventory lists for 1981-2010, 1971-2000, and 1961-1990 Normals.

If you haven't already, please take our survey and provide feedback about our website: https://eccc.sondage-survey.ca/f/LanguageSelection.aspx?s=442ca660-fcf1-47c0-95a9-59707d6fd709

Hourly Data Report for May 01, 2020

MIRAMICHI RCS
NEW BRUNSWICK
Current Station Operator: ECCC - MSC

47°00'34.000" N
65°27'54.000" W
33.00 m
8100989
71744
ACQ

Download Data

Hourly Data (May 2020)
Hourly Data Report for May 1, 2020
TIME
LST
Temp Definition
°C
Dew Point Definition
°C
Rel Hum Definition
%
Precip. Amount Definition
mm

Wind Dir Definition
10's deg

Wind Spd Definition
km/h
Visibility Definition
km
Stn Press Definition
kPa
Hmdx Definition


Wind Chill Definition


Weather Definition


00:00 7.3 -0.6 57 LegendMM 21 17   102.06     LegendNANA
01:00 6.3 -2.8 52 LegendMM 19 17   101.95     LegendNANA
02:00 5.4 -1.7 60 LegendMM 20 13   101.93     LegendNANA
03:00 4.9 -1.2 65 LegendMM 20 11   101.85     LegendNANA
04:00 4.5 -0.2 71 LegendMM 20 11   101.82     LegendNANA
05:00 4.7 0.2 73 LegendMM 19 11   101.70     LegendNANA
06:00 5.4 1.5 76 LegendMM 19 19   101.67     LegendNANA
07:00 6.3 1.8 73 LegendMM 18 16   101.61     LegendNANA
08:00 6.5 2.1 73 LegendMM 18 15   101.57     LegendNANA
09:00 7.6 3.4 75 LegendMM 19 13   101.48     LegendNANA
10:00 9.6 4.6 71 LegendMM 20 12   101.35     LegendNANA
11:00 13.1 5.9 62 LegendMM 19 19   101.22     LegendNANA
12:00 14.2 7.1 62 LegendMM 19 25   101.07     LegendNANA
13:00 14.1 7.2 63 LegendMM 19 22   100.97     LegendNANA
14:00 14.8 7.5 62 LegendMM 16 16   100.82     LegendNANA
15:00 16.0 8.3 60 LegendMM 20 26   100.71     LegendNANA
16:00 14.4 11.0 80 LegendMM 19 14   100.58     LegendNANA
17:00 15.7 9.1 65 LegendMM 18 27   100.45     LegendNANA
18:00 13.8 10.3 80 LegendMM 16 13   100.33     LegendNANA
19:00 14.2 10.3 77 LegendMM 16 24   100.15     LegendNANA
20:00 12.8 10.7 87 LegendMM 16 22   100.00     LegendNANA
21:00 11.7 11.0 95 LegendMM 16 20   99.88     LegendNANA
22:00 11.5 11.2 98 LegendMM 17 15   99.77     LegendNANA
23:00 11.6 11.4 99 LegendMM 17 12   99.63     LegendNANA

Notes on Data Quality.

Legend

  • E = Estimated
  • M = Missing
  • NA = Not Available*
  • [empty] = Indicates an unobserved value
Date modified: